Lapeer, MI

6:22 AM EST on January 23, 2017 (GMT -0500)
Lapeer

Weather History for KD95 - November, 2012

Change the Weather History Date:

Sunday, November 18, 2012

  Actual Average (KFNT) Record (KFNT)
Temperature  
Mean Temperature 39 °F -  
Max Temperature 51 °F 46 °F 71 °F (2016)
Min Temperature 27 °F 31 °F 11 °F (1959)
Degree Days  
Heating Degree Days 26    
Moisture  
Dew Point 37 °F    
Average Humidity 93    
Maximum Humidity 100    
Minimum Humidity 63    
Precipitation  
Precipitation 0.00 in - - ()
Sea Level Pressure  
Sea Level Pressure 30.49 in    
Wind  
Wind Speed 2 mph ()    
Max Wind Speed 8 mph    
Max Gust Speed -    
Visibility 4.7 miles    
Events Fog    
Averages and records for this station are not official NWS values.
T = Trace of Precipitation, MM = Missing Value Source: Averaged Metar Reports

Daily Weather History Graph

Daily Weather History Graph

Search for Another Location

Airport or City:

Trip Planner

Search our weather history database for the weather conditions in past years. The results will help you decide how hot, cold, wet, or windy it might be!

Date:

Astronomy

Nov. 18, 2012 Rise Set
Actual Time 7:30 AM EST 5:06 PM EST
Civil Twilight 6:59 AM EST 5:37 PM EST
Nautical Twilight 6:24 AM EST 6:11 PM EST
Astronomical Twilight 5:50 AM EST 6:45 PM EST
Moon 11:54 AM EST (11/18) 10:26 PM EST (11/18)
Length of Visible Light 10h 38m
Length of Day
9h 36m
Waxing Crescent, 30% of the Moon is Illuminated
Nov 18
Waxing Crescent
Nov 20
First Quarter
Nov 28
Full
Dec 6
Last Quarter
Dec 13
New

Hourly Weather History & Observations

Time (EST) Temp. Windchill Dew Point Humidity Pressure Visibility Wind Dir Wind Speed Gust Speed Precip Events Conditions
12:13 AM 29.8 °F - 29.8 °F 100% 30.55 in 2.5 mi Calm Calm - N/A   Clear
12:33 AM 34.5 °F - 34.5 °F 100% 30.55 in 1.5 mi Calm Calm - N/A   Mist
12:53 AM 33.4 °F - 33.4 °F 100% 30.55 in 0.8 mi Calm Calm - N/A   Mist
1:13 AM 30.9 °F - 30.9 °F 100% 30.54 in 0.2 mi Calm Calm - N/A Fog Light Freezing Fog
1:33 AM 31.3 °F - 31.3 °F 100% 30.54 in 0.2 mi Calm Calm - N/A Fog Light Freezing Fog
1:53 AM 28.8 °F - 28.8 °F 100% 30.54 in 0.2 mi Calm Calm - N/A Fog Light Freezing Fog
2:13 AM 27.3 °F - 27.3 °F 100% 30.54 in 0.2 mi Calm Calm - N/A Fog Light Freezing Fog
2:33 AM 28.6 °F - 28.6 °F 100% 30.54 in 0.2 mi Calm Calm - N/A Fog Light Freezing Fog
2:53 AM 28.8 °F 25.0 °F 28.8 °F 100% 30.54 in 0.2 mi East 3.5 mph - N/A Fog Light Freezing Fog
3:13 AM 32.2 °F - 32.2 °F 100% 30.54 in 0.2 mi Calm Calm - N/A Fog Fog
3:33 AM 33.6 °F - 33.6 °F 100% 30.53 in 0.2 mi Calm Calm - N/A Fog Fog
3:53 AM 34.9 °F - 34.9 °F 100% 30.52 in 0.2 mi Calm Calm - N/A Fog Fog
4:13 AM 35.6 °F 32.8 °F 35.6 °F 100% 30.52 in 0.2 mi ESE 3.5 mph - N/A Fog Fog
4:33 AM 36.0 °F - 36.0 °F 100% 30.52 in 0.2 mi Calm Calm - N/A Fog Fog
4:53 AM 36.5 °F - 36.5 °F 100% 30.52 in 0.2 mi Calm Calm - N/A Fog Fog
5:13 AM 36.7 °F 32.9 °F 36.7 °F 100% 30.53 in 0.2 mi ESE 4.6 mph - N/A Fog Fog
5:33 AM 36.9 °F 34.3 °F 36.9 °F 100% 30.54 in 0.2 mi ESE 3.5 mph - N/A Fog Fog
5:53 AM 37.0 °F - 37.0 °F 100% 30.54 in 0.2 mi Calm Calm - N/A Fog Fog
6:13 AM 37.4 °F - 37.4 °F 100% 30.54 in 0.2 mi Calm Calm - N/A Fog Fog
6:33 AM 37.4 °F - 37.4 °F 100% 30.54 in 0.2 mi Calm Calm - N/A Fog Fog
6:53 AM 37.6 °F 35.1 °F 37.6 °F 100% 30.53 in 0.2 mi ESE 3.5 mph - N/A Fog Fog
7:13 AM 38.3 °F 35.9 °F 38.3 °F 100% 30.53 in 0.2 mi SE 3.5 mph - N/A Fog Fog
7:33 AM 38.5 °F 36.1 °F 38.5 °F 100% 30.53 in 0.8 mi SE 3.5 mph - N/A   Overcast
7:53 AM 38.7 °F - 38.7 °F 100% 30.53 in 0.2 mi Calm Calm - N/A Fog Fog
8:13 AM 39.0 °F 36.8 °F 39.0 °F 100% 30.54 in 0.2 mi SE 3.5 mph - N/A Fog Fog
8:33 AM 39.2 °F 35.9 °F 39.2 °F 100% 30.53 in 0.5 mi SE 4.6 mph - N/A Fog Fog
8:53 AM 39.2 °F 35.9 °F 39.2 °F 100% 30.53 in 0.5 mi ESE 4.6 mph - N/A Fog Fog
9:13 AM 39.4 °F 34.5 °F 39.4 °F 100% 30.53 in 0.5 mi SE 6.9 mph - N/A Fog Fog
9:33 AM 39.6 °F 35.4 °F 39.6 °F 100% 30.53 in 1.0 mi ESE 5.8 mph - N/A   Overcast
9:53 AM 39.7 °F 36.5 °F 39.7 °F 100% 30.54 in 0.5 mi SE 4.6 mph - N/A Fog Fog
10:13 AM 40.1 °F 36.9 °F 40.1 °F 100% 30.53 in 1.0 mi SE 4.6 mph - N/A   Overcast
10:33 AM 40.3 °F 37.1 °F 40.3 °F 100% 30.53 in 2.0 mi SE 4.6 mph - N/A   Overcast
10:53 AM 41.0 °F 37.1 °F 41.0 °F 100% 30.53 in 2.5 mi SE 5.8 mph - N/A   Overcast
11:13 AM 41.0 °F 38.0 °F 41.0 °F 100% 30.52 in 3.0 mi ESE 4.6 mph - N/A   Overcast
11:33 AM 41.9 °F 40.0 °F 41.9 °F 100% 30.52 in 4.0 mi East 3.5 mph - N/A   Overcast
11:53 AM 42.3 °F 39.4 °F 42.3 °F 100% 30.50 in 5.0 mi East 4.6 mph - N/A   Overcast
12:13 PM 43.9 °F 41.3 °F 43.9 °F 100% 30.49 in 5.0 mi East 4.6 mph - N/A   Scattered Clouds
12:33 PM 44.8 °F 43.3 °F 44.8 °F 100% 30.48 in 7.0 mi SSE 3.5 mph - N/A   Clear
12:53 PM 44.6 °F 43.1 °F 44.6 °F 100% 30.48 in 7.0 mi SE 3.5 mph - N/A   Clear
1:13 PM 45.3 °F - 45.3 °F 100% 30.48 in 7.0 mi Calm Calm - N/A   Clear
1:33 PM 47.5 °F - 43.9 °F 87% 30.47 in 7.0 mi Calm Calm - N/A   Clear
1:53 PM 49.8 °F - 44.8 °F 83% 30.46 in 10.0 mi ESE 4.6 mph - N/A   Clear
2:13 PM 51.1 °F - 44.1 °F 77% 30.45 in 10.0 mi East 3.5 mph - N/A   Clear
2:33 PM 51.8 °F - 42.8 °F 71% 30.44 in 10.0 mi ESE 8.1 mph - N/A   Clear
2:53 PM 51.8 °F - 43.5 °F 73% 30.44 in 10.0 mi SE 4.6 mph - N/A   Clear
3:13 PM 51.6 °F - 40.5 °F 66% 30.44 in 10.0 mi SE 6.9 mph - N/A   Clear
3:33 PM 51.8 °F - 39.6 °F 63% 30.44 in 10.0 mi SSE 5.8 mph - N/A   Clear
3:53 PM 51.8 °F - 40.1 °F 64% 30.44 in 10.0 mi East 5.8 mph - N/A   Clear
4:13 PM 51.3 °F - 39.7 °F 65% 30.44 in 10.0 mi East 3.5 mph - N/A   Clear
4:33 PM 50.5 °F - 39.2 °F 65% 30.44 in 10.0 mi Calm Calm - N/A   Clear
4:53 PM 49.8 °F - 38.3 °F 65% 30.44 in 10.0 mi Calm Calm - N/A   Clear
5:13 PM 47.3 °F - 37.2 °F 68% 30.44 in 10.0 mi Calm Calm - N/A   Clear
5:34 PM 46.6 °F - 36.5 °F 68% 30.44 in 10.0 mi Calm Calm - N/A   Clear
5:53 PM 42.4 °F - 35.2 °F 76% 30.44 in 10.0 mi Calm Calm - N/A   Clear
6:13 PM 43.5 °F - 35.2 °F 73% 30.44 in 10.0 mi Calm Calm - N/A   Clear
6:33 PM 40.5 °F - 34.0 °F 78% 30.45 in 10.0 mi Calm Calm - N/A   Clear
6:53 PM 36.3 °F - 34.7 °F 94% 30.45 in 10.0 mi Calm Calm - N/A   Clear
7:13 PM 33.1 °F - 33.1 °F 100% 30.45 in 10.0 mi Calm Calm - N/A   Clear
7:33 PM 33.3 °F - 33.3 °F 100% 30.45 in 7.0 mi Calm Calm - N/A   Clear
7:53 PM 33.1 °F - 33.1 °F 100% 30.45 in 10.0 mi Calm Calm - N/A   Clear
8:13 PM 32.5 °F - 32.5 °F 100% 30.44 in 10.0 mi Calm Calm - N/A   Clear
8:33 PM 32.9 °F - 32.9 °F 100% 30.44 in 10.0 mi Calm Calm - N/A   Clear
8:53 PM 31.3 °F - 31.3 °F 100% 30.44 in 10.0 mi Calm Calm - N/A   Clear
9:13 PM 31.5 °F - 31.5 °F 100% 30.44 in 10.0 mi Calm Calm - N/A   Clear
9:33 PM 31.6 °F - 31.6 °F 100% 30.44 in 7.0 mi Calm Calm - N/A   Clear
9:53 PM 30.7 °F - 30.7 °F 100% 30.44 in 10.0 mi Calm Calm - N/A   Clear
10:13 PM 30.0 °F - 30.0 °F 100% 30.43 in 5.0 mi Calm Calm - N/A   Clear
10:33 PM 29.7 °F - 29.7 °F 100% 30.43 in 5.0 mi Calm Calm - N/A   Clear
10:53 PM 29.3 °F 25.6 °F 29.3 °F 100% 30.43 in 5.0 mi SE 3.5 mph - N/A   Clear
11:33 PM 28.8 °F - 28.8 °F 100% 30.43 in 7.0 mi Calm Calm - N/A   Clear